This is the latest recevied weather packets stored in our database for station/object KK7KHO. If no packets are shown the sender has not sent any weather packets the latest 10 day(s).
| Time | Temp. | Humidity | Pressure | Rain* | Wind** | Luminosity | Snow |
|---|---|---|---|---|---|---|---|
| 1777191021 | 6.67° C | 78% | 1008.8 hPa | 0 mm | - | 0 W/m² | - |
| 1777190718 | 6.67° C | 77% | 1008.8 hPa | 0 mm | - | 0 W/m² | - |
| 1777190415 | 6.67° C | 78% | 1008.5 hPa | 0 mm | - | 0 W/m² | - |
| 1777190110 | 6.67° C | 77% | 1008.7 hPa | 0 mm | - | 0 W/m² | - |
| 1777189807 | 7.22° C | 76% | 1008.2 hPa | 0 mm | - | 0 W/m² | - |
| 1777189503 | 7.78° C | 70% | 1008.4 hPa | 0 mm | - | 0 W/m² | - |
| 1777189197 | 7.78° C | 71% | 1008.7 hPa | 0 mm | - | 0 W/m² | - |
| 1777188893 | 8.33° C | 69% | 1008.4 hPa | 0 mm | - | 0 W/m² | - |
| 1777188590 | 8.33° C | 69% | 1008.5 hPa | 0 mm | - | 0 W/m² | - |
| 1777188285 | 8.33° C | 69% | 1008.5 hPa | 0 mm | - | 0 W/m² | - |
| 1777187981 | 8.33° C | 68% | 1008.6 hPa | 0 mm | - | 0 W/m² | - |
| 1777187677 | 8.33° C | 69% | 1008.4 hPa | 0 mm | - | 0 W/m² | - |
| 1777187372 | 8.89° C | 66% | 1008.5 hPa | 0 mm | - | 0 W/m² | - |
| 1777187067 | 8.89° C | 65% | 1008.4 hPa | 0 mm | - | 0 W/m² | - |
| 1777186763 | 8.33° C | 66% | 1008.5 hPa | 0 mm | - | 0 W/m² | - |
| 1777186458 | 8.89° C | 68% | 1008.2 hPa | 0 mm | - | 0 W/m² | - |
| 1777186149 | 8.89° C | 67% | 1008.4 hPa | 0 mm | - | 0 W/m² | - |
| 1777185844 | 8.33° C | 66% | 1008.2 hPa | 0 mm | - | 0 W/m² | - |
| 1777185540 | 8.33° C | 69% | 1008.2 hPa | 0 mm | - | 0 W/m² | - |
| 1777185236 | 8.33° C | 67% | 1008.2 hPa | 0 mm | - | 0 W/m² | - |
| 1777184931 | 8.33° C | 66% | 1008 hPa | 0 mm | - | 0 W/m² | - |
| 1777184630 | 8.89° C | 66% | 1008 hPa | 0 mm | - | 0 W/m² | - |
| 1777184326 | 8.89° C | 66% | 1008.1 hPa | 0 mm | - | 0 W/m² | - |
| 1777184021 | 8.89° C | 68% | 1008 hPa | 0 mm | - | 0 W/m² | - |
| 1777183718 | 8.89° C | 67% | 1008.1 hPa | 0 mm | - | 0 W/m² | - |
* Rain latest hour (hover to see other rain measurements)
** Current wind speed in m/s (hover to see current wind gust speed)